FREGAT DEB, 45977

Orbit data source: Space-Track

FREGAT DEB, 45977 is space debris in LEO originally from a launch on Mon, 18 Jul 2011 UTC launched from the Tyuratam Missile And Space Complex (TTMTR). Debris objects in space refer to the collection of defunct objects orbiting the Earth. Examples of debris include non-operational satellites, rocket bodies, and fragments generated from explosions, collisions, or faulty payload assembly.

Loading next visibility...
Identifier
45977, 2011-037GJ
Orbit
LEO
Country
Flag of CISCIS
Related business
Manufacturer
Lavochkin
Mission
Spacecraft
Bus & Motor
Unknown
Mass
Unknown
Launch date (UTC)
2011-07-18 (14 years ago)
Launch vehicle
Unknown
Launch site
Tyuratam Missile And Space Complex (TTMTR)
Object type
Payload
Rocket body
Debris
Shape & HBR
Unknown shape, 0.1 m
Radar Cross Section
Small (<0.1 m²)

Expand to show TLE details & history
Last TLE update: 2 days ago

TLE from 2 days ago
0 FREGAT DEB
1 45977U 11037GJ  25338.95320352  .00000685  00000-0  18662-2 0  9998
2 45977  51.5413 253.1976 1800034 123.5507 255.0349 10.67579329209294
Epoch: 2025-12-04T22:52Z
TLE epoch observation values (Epoch: 2025-12-04T22:52:36.784Z)
Latitude
0.00003°
Longitude
-163.95789°
Altitude
2,981.768 km
Speed
6.281 km/s
True Right ascension
16h 52m 47s
True Declination
0° 00' 00"
Sunlit
Object was in daylight at epoch
Visualization orbit readout
Latitude
Unknown
Longitude
Unknown
Altitude
Unknown
Speed
Unknown
Apparent Right ascension
Unknown
Apparent Declination
Unknown
Sunlit
N/A
Visualization observer readout
Local Sidereal Time
08:17:44
Azimuth
Unknown
Elevation
Unknown
Doppler factor
Unknown
Orbital elements
Apogee altitude
3,902.969 km
Perigee altitude
766.31 km
Semi-major axis
8,712.777 km
Eccentricity
0.18
Inclination
51.5413°
RAAN
253.1976°
Arg. of periapsis
123.5507°
True anomaly
236.5281°
Mean anomaly
255.0349°
Eccentric anomaly
245.63968°
Mean motion
2.66875 °/min
Orbital period
134.89 mins
BSTAR
0.0018662
Loading maneuver chart data...
Computing Atmospheric mass density...
Loading historical data...
Loading historical data...
Loading historical data...
Loading historical data...
Loading historical data...
Loading historical data...
Loading historical data...

Documentation

Showing up to 5 results
|